Regional Weather Roundup
Issued by NWS

Home | Current Version | Previous Version | Text Only | Print | Product List | Glossary On
Versions: 1 2 3 4 5 6 7 8 9 10 11 12 13 14 15 16 17 18 19 20 21 22 23 24 25 26 27 28 29 30 31 32 33 34 35 36 37 38 39 40 41 42 43 44 45 46 47 48 49 50
000
ASUS45 KCYS 051610
RWRWY

WYOMING REGIONAL WEATHER ROUNDUP
NATIONAL WEATHER SERVICE CHEYENNE WY
1000 AM MDT THU MAY 05 2016

NOTE:  "FAIR" INDICATES FEW OR NO CLOUDS BELOW 12,000 FEET
WITH NO SIGNIFICANT WEATHER AND/OR OBSTRUCTIONS TO VISIBILITY.

WYZ001-051700-
YELLOWSTONE NATIONAL PARK

CITY           SKY/WX    TMP DP  RH WIND       PRES   REMARKS
LK YELLOWSTONE   N/A     44  29  55 CALM      30.20F
W YELLOWSTONE  NOT AVBL

$$
WYZ002>013-054>058-071-098>099-051700-
NORTHERN WYOMING

CITY           SKY/WX    TMP DP  RH WIND       PRES   REMARKS
JACKSON        SUNNY     54  30  40 CALM      30.14F
CODY           FAIR      66  36  32 SW9       30.02S
GREYBULL       FAIR      66  33  29 SE3       29.97F
WORLAND        FAIR      61  39  44 CALM      30.00S
SHERIDAN       FAIR      67  44  43 CALM      29.95S
BUFFALO        FAIR      69  42  37 S3        30.00S
GILLETTE       FAIR      70  45  40 SE7       29.97F
HULETT         FAIR      73  43  33 W5        29.99F
NEWCASTLE      FAIR      68  37  32 S8        30.02F

$$
WYZ014>020-022>026-101>103-051700-
CENTRAL WYOMING

CITY           SKY/WX    TMP DP  RH WIND       PRES   REMARKS
BIG PINEY      FAIR      54  30  40 SW5       30.18F
PINEDALE       FAIR      61  32  33 S7        30.18F
DUBOIS         FAIR      54  27  35 CALM      30.16F
LANDER         FAIR      62  38  40 VRB5      30.08S
RIVERTON       FAIR      62  42  47 NE3       30.09S
CASPER         FAIR      68  34  28 SW22G29   30.06F
DOUGLAS        FAIR      69  41  36 S5        30.05F

$$
WYZ021-027>030-104>119-051700-
SOUTHERN WYOMING

CITY           SKY/WX    TMP DP  RH WIND       PRES   REMARKS
EVANSTON       FAIR      60  32  34 E3        30.13F
KEMMERER         N/A     59  30  33 E9        30.17S
FORT BRIDGER   SUNNY     61  34  36 E6        30.18F
ROCK SPRINGS   FAIR      63  31  30 SE5       30.16F
DIXON          FAIR      61  38  41 CALM      30.21F
RAWLINS        FAIR      59  33  37 SE5       30.20S
SARATOGA       FAIR      63  30  29 SE7       30.21F
LARAMIE        FAIR      58  32  37 SW13      30.22S
CHEYENNE       FAIR      69  34  27 W8        30.16S
TORRINGTON     FAIR      65  44  46 VRB3      30.04F
PINE BLUFFS    FAIR      66  43  42 SW6       30.12S

$$



USA.gov is the U.S. government's official web portal to all federal, state and local government web resources and services.